[[{"header":{"parameterUnit":"m.s-1","parameterCategory":1,"la1":30.2991,"la2":30.254,"lo1":-89.0895,"lo2":-89.0444,"dy":0.0017,"dx":0.0017,"nx":28,"ny":28,"refTime":"2024-04-21T03:00:00:Z","depth":0,"parameterNumber":2,"parameterNumberName":"U-component_of_WINDS"},"data":[0,0,0,0,0,0,0,0,0,0,0,0,0,0,0,0,0,0,0,0,0,0,0,0,0,0,0,0,0,0,0,0,0,0,0,0,0,0,0,0,0,0,0,0,0,0,0,0,0,0,0,0,0,0,0,0,0,0,-1.7492,-1.7493,0,-1.7602,-1.7604,-1.7605,-1.7628,-1.7628,-1.7627,-1.7626,-1.7745,-1.7749,-1.7753,0,0,0,0,0,0,0,0,0,0,0,0,0,-1.7306,-1.7309,-1.7491,-1.7493,-1.7494,-1.7602,-1.7604,-1.7605,-1.7629,-1.7628,-1.7627,-1.7626,-1.7744,-1.7749,-1.7753,0,0,0,0,0,0,0,0,0,0,0,0,0,-1.7399,-1.7311,-1.7491,-1.7519,-1.7522,-1.7602,-1.7604,-1.7606,-1.7629,-1.7628,-1.7626,-1.7625,-1.7742,-1.7748,-1.7754,-1.7816,0,0,-1.7772,-1.7775,0,0,0,0,0,0,0,0,-1.7394,-1.7406,-1.7513,-1.7517,-1.7521,-1.76,-1.7582,-1.7676,-1.7629,-1.7589,-1.7626,-1.7625,-1.7698,-1.7708,-1.7732,-1.7821,-1.7827,-1.7773,-1.7776,-1.7779,-1.7781,0,0,0,0,0,0,0,-1.7387,-1.7401,-1.7536,-1.7515,-1.752,-1.7528,-1.7539,-1.76,-1.7649,-1.7592,-1.7594,-1.7606,-1.77,-1.7726,-1.7735,-1.7828,-1.7773,-1.7778,-1.7782,-1.7784,-1.7977,-1.7978,0,0,0,0,0,0,-1.7375,-1.7396,-1.7532,-1.7539,-1.7453,-1.7532,-1.7545,-1.7576,-1.7649,-1.7658,-1.7607,-1.7607,-1.7716,-1.7728,-1.7739,-1.7817,-1.7779,-1.7784,-1.7788,-1.7975,-1.7977,-1.7979,0,0,0,0,0,0,-1.7371,-1.7387,-1.7528,-1.7468,-1.7486,-1.7536,-1.7571,-1.7579,-1.7604,-1.766,-1.767,-1.7624,-1.7716,-1.7731,-1.7797,-1.7822,-1.7787,-1.7792,-1.7973,-1.7976,-1.7978,-1.7973,0,0,0,0,0,0,-1.7366,-1.7385,-1.7408,-1.7468,-1.7489,-1.7581,-1.7573,-1.7582,-1.7614,-1.7615,-1.7678,-1.7688,-1.7716,-1.7788,-1.7802,-1.7829,-1.7797,-1.7971,-1.7974,-1.7977,-1.7971,-1.7975,-1.7978,0,0,0,0,0,-1.7359,-1.7403,-1.7409,-1.7425,-1.7518,-1.7583,-1.7595,-1.7625,-1.7616,-1.764,-1.7676,-1.7686,-1.7816,-1.7794,-1.7811,-1.784,-1.797,-1.7973,-1.7977,-1.797,-1.7974,-1.7978,0,0,0,0,0,0,-1.7346,-1.7411,-1.7418,-1.7483,-1.7527,-1.7586,-1.7618,-1.7629,-1.7678,-1.7676,-1.7713,-1.7727,-1.7792,-1.7823,-1.7797,-1.7905,-1.7893,-1.79,-1.7882,-1.7887,-1.789,-1.7882,-1.7802,0,0,0,0,0,-1.735,-1.7395,-1.7451,-1.7503,-1.7524,-1.7567,-1.7596,-1.7615,-1.7663,-1.7683,-1.7723,-1.7771,-1.7823,-1.7857,-1.7907,-1.7976,-1.7991,-1.8005,-1.8008,-1.801,-1.8016,-1.8057,-1.8064,-1.799,-1.799,-1.799,0,0,-1.7361,-1.7402,-1.7428,-1.7501,-1.7537,-1.7585,-1.7583,-1.7633,-1.767,-1.7691,-1.7755,-1.7787,-1.7843,-1.7911,-1.7943,-1.7939,-1.804,-1.8015,-1.8017,-1.8021,-1.8061,-1.8068,-1.8074,-1.7993,-1.7992,-1.7992,0,0,-1.7404,-1.7439,-1.7486,-1.7522,-1.7577,-1.7605,-1.7616,-1.7675,-1.7696,-1.7761,-1.7778,-1.7823,-1.7912,-1.7951,-1.7983,-1.8042,-1.8053,-1.8057,-1.8076,-1.8115,-1.812,-1.8126,-1.8148,-1.8156,-1.8063,-1.8063,-1.8063,0,-1.741,-1.7481,-1.7509,-1.7559,-1.7592,-1.7611,-1.7661,-1.7695,-1.7765,-1.7787,-1.7781,-1.7893,-1.7932,-1.801,-1.8024,-1.8049,-1.8065,-1.805,-1.8117,-1.8123,-1.8128,-1.815,-1.8158,-1.8063,-1.8063,-1.8063,-1.8063,0,-1.7486,-1.7535,-1.7568,-1.7632,-1.7668,-1.7717,-1.7756,-1.7789,-1.7806,-1.7835,-1.7903,-1.795,-1.8011,-1.8031,-1.8048,-1.8113,-1.8108,-1.8109,-1.8098,-1.8135,-1.8156,-1.8164,-1.8063,-1.8063,-1.8063,-1.8063,0,0,-1.7524,-1.7604,-1.7615,-1.7645,-1.7707,-1.7747,-1.7798,-1.7856,-1.7885,-1.7933,-1.7978,-1.8053,-1.8054,-1.809,-1.8112,-1.8146,-1.8191,-1.8143,-1.8145,-1.8151,-1.8267,-1.8266,-1.8275,-1.8199,-1.82,-1.8202,-1.8262,0,-1.7575,-1.7665,-1.7693,-1.7769,-1.7816,-1.7836,-1.7881,-1.7926,-1.7955,-1.8001,-1.8035,-1.8087,-1.8084,-1.8106,-1.814,-1.8178,-1.8215,-1.8174,-1.8243,-1.8245,-1.8229,-1.8286,-1.8285,-1.834,-1.8271,-1.8272,-1.8273,0,-1.7647,-1.7693,-1.7774,-1.7831,-1.7851,-1.7891,-1.7948,-1.799,-1.8042,-1.8061,-1.8101,-1.8121,-1.8178,-1.8163,-1.8243,-1.8215,-1.8245,-1.8268,-1.8271,-1.8279,-1.8262,-1.8297,-1.8358,-1.8366,-1.8286,-1.8285,-1.8284,0,-1.7667,-1.7751,-1.781,-1.7835,-1.7902,-1.793,-1.796,-1.801,-1.8044,-1.8094,-1.8116,-1.8173,-1.8204,-1.8249,-1.8284,-1.827,-1.8362,-1.835,-1.8381,-1.838,-1.84,-1.8398,-1.8468,-1.8418,-1.8418,-1.8418,-1.8418,0,-1.7722,-1.777,-1.782,-1.7856,-1.7912,-1.7945,-1.8001,-1.8032,-1.8076,-1.8121,-1.8143,-1.8184,-1.8228,-1.8276,-1.8304,-1.8367,-1.8381,-1.84,-1.8407,-1.8398,-1.8396,-1.8419,-1.8416,-1.842,-1.842,-1.8419,-1.8419,0,-1.7754,-1.7789,-1.7855,-1.7913,-1.7929,-1.7968,-1.8019,-1.8057,-1.8087,-1.8144,-1.8159,-1.8208,-1.8266,-1.8305,-1.838,-1.8399,-1.8468,-1.8473,-1.8449,-1.8453,-1.8482,-1.8479,-1.857,-1.8584,-1.8524,-1.8524,-1.8525,0,-1.7787,-1.7825,-1.7887,-1.7917,-1.7947,-1.7996,-1.803,-1.8064,-1.81,-1.8162,-1.8192,-1.8251,-1.83,-1.8393,-1.8436,-1.8494,-1.8502,-1.853,-1.8511,-1.8502,-1.8504,-1.8502,-1.8506,-1.8533,-1.8534,-1.8534,-1.8534,0,-1.7841,-1.7857,-1.7904,-1.7958,-1.7997,-1.8042,-1.8087,-1.8111,-1.8154,-1.8193,-1.8252,-1.829,-1.8366,-1.8425,-1.8487,-1.8521,-1.8536,-1.854,-1.855,-1.8542,-1.8527,-1.8537,-1.8458,-1.8538,-1.8537,-1.8537,-1.8537,-1.8537,-1.7876,-1.7911,-1.796,-1.8012,-1.8049,-1.8091,-1.8129,-1.8164,-1.8213,-1.8276,-1.8294,-1.8356,-1.8409,-1.8493,-1.8528,-1.8578,-1.8576,-1.859,-1.8595,-1.8598,-1.8598,-1.8518,-1.859,-1.8589,-1.8589,-1.8589,-1.8589,0,-1.7932,-1.7965,-1.8012,-1.8074,-1.8116,-1.8124,-1.8174,-1.821,-1.8263,-1.8309,-1.8357,-1.8426,-1.8484,-1.8532,-1.8592,-1.8623,-1.8632,-1.8638,-1.8636,-1.8644,-1.8597,-1.8582,-1.863,-1.863,-1.863,-1.863,-1.863,-1.863,-1.7966,-1.8026,-1.8048,-1.8127,-1.816,-1.8219,-1.8247,-1.8286,-1.8324,-1.8399,-1.8446,-1.8476,-1.8525,-1.8589,-1.8643,-1.8656,-1.8678,-1.8683,-1.8697,-1.8652,-1.8647,-1.8643,-1.8629,-1.8687,-1.8687,-1.8741,-1.8742,-1.8742]},{"header":{"parameterUnit":"m.s-1","parameterCategory":1,"la1":30.2991,"la2":30.254,"lo1":-89.0895,"lo2":-89.0444,"dy":0.0017,"dx":0.0017,"nx":28,"ny":28,"refTime":"2024-04-21T03:00:00:Z","depth":0,"parameterNumber":3,"parameterNumberName":"V-component_of_WINDS"},"data":[0,0,0,0,0,0,0,0,0,0,0,0,0,0,0,0,0,0,0,0,0,0,0,0,0,0,0,0,0,0,0,0,0,0,0,0,0,0,0,0,0,0,0,0,0,0,0,0,0,0,0,0,0,0,0,0,0,0,-7.2199,-7.22,0,-7.2282,-7.2283,-7.2284,-7.224,-7.2238,-7.2236,-7.2234,-7.2312,-7.2316,-7.232,0,0,0,0,0,0,0,0,0,0,0,0,0,-7.1996,-7.2,-7.2199,-7.22,-7.2201,-7.2282,-7.2283,-7.2284,-7.2241,-7.2238,-7.2235,-7.2233,-7.2311,-7.2316,-7.2321,0,0,0,0,0,0,0,0,0,0,0,0,0,-7.2082,-7.2001,-7.2199,-7.2189,-7.2189,-7.2281,-7.2283,-7.2284,-7.2241,-7.2238,-7.2234,-7.2231,-7.2309,-7.2315,-7.2321,-7.2426,0,0,-7.234,-7.2343,0,0,0,0,0,0,0,0,-7.2077,-7.2089,-7.219,-7.219,-7.219,-7.2247,-7.224,-7.2331,-7.2242,-7.2221,-7.2234,-7.223,-7.2293,-7.23,-7.2323,-7.2429,-7.2433,-7.2341,-7.2345,-7.2347,-7.2349,0,0,0,0,0,0,0,-7.2071,-7.2085,-7.2231,-7.2191,-7.2191,-7.2178,-7.2187,-7.2257,-7.2274,-7.2223,-7.222,-7.2231,-7.2292,-7.2317,-7.2324,-7.2434,-7.2341,-7.2346,-7.235,-7.2353,-7.2628,-7.2631,0,0,0,0,0,0,-7.2067,-7.2081,-7.2229,-7.2234,-7.2125,-7.2185,-7.2194,-7.2232,-7.2273,-7.2277,-7.2233,-7.2228,-7.2308,-7.2317,-7.2327,-7.2451,-7.2347,-7.2353,-7.2357,-7.2625,-7.2629,-7.2633,0,0,0,0,0,0,-7.2062,-7.208,-7.2225,-7.2157,-7.2174,-7.2192,-7.2235,-7.2236,-7.226,-7.2282,-7.2284,-7.2256,-7.2306,-7.2318,-7.2401,-7.2453,-7.2356,-7.2362,-7.262,-7.2626,-7.2631,-7.27,0,0,0,0,0,0,-7.2057,-7.2079,-7.2121,-7.2158,-7.2178,-7.2301,-7.2238,-7.224,-7.2272,-7.2266,-7.2303,-7.2306,-7.2304,-7.2392,-7.2408,-7.246,-7.2366,-7.2616,-7.2623,-7.2629,-7.2693,-7.2707,-7.2719,0,0,0,0,0,-7.205,-7.2136,-7.2123,-7.2141,-7.2231,-7.2304,-7.2315,-7.2313,-7.2276,-7.2317,-7.233,-7.2305,-7.2445,-7.2401,-7.2418,-7.2473,-7.2612,-7.2621,-7.2629,-7.2687,-7.2704,-7.2718,0,0,0,0,0,0,-7.2102,-7.214,-7.2127,-7.2228,-7.2263,-7.2297,-7.2348,-7.2331,-7.2376,-7.2369,-7.2362,-7.2371,-7.2457,-7.2473,-7.2424,-7.2575,-7.2523,-7.2534,-7.2561,-7.2578,-7.259,-7.2584,-7.2372,0,0,0,0,0,-7.2125,-7.2184,-7.2214,-7.23,-7.2319,-7.2331,-7.2362,-7.2358,-7.2393,-7.2407,-7.2427,-7.246,-7.2511,-7.2545,-7.2594,-7.2695,-7.2701,-7.2741,-7.2754,-7.2764,-7.2774,-7.2827,-7.2844,-7.2659,-7.2659,-7.2659,0,0,-7.2174,-7.2202,-7.2239,-7.2311,-7.2338,-7.2396,-7.2343,-7.2408,-7.245,-7.2416,-7.2497,-7.2512,-7.2549,-7.2641,-7.2683,-7.2657,-7.2827,-7.2774,-7.2783,-7.2787,-7.2837,-7.2854,-7.287,-7.2665,-7.2664,-7.2663,0,0,-7.2293,-7.2321,-7.2395,-7.2424,-7.2466,-7.2473,-7.2491,-7.2527,-7.2536,-7.2617,-7.2593,-7.2642,-7.2731,-7.2758,-7.2783,-7.2911,-7.2889,-7.2927,-7.2994,-7.3046,-7.306,-7.3073,-7.3117,-7.3133,-7.2937,-7.2937,-7.2937,0,-7.2347,-7.2437,-7.2435,-7.2502,-7.2533,-7.2507,-7.2581,-7.2607,-7.2662,-7.2683,-7.2654,-7.2765,-7.2788,-7.2885,-7.2917,-7.2939,-7.2957,-7.2923,-7.3059,-7.3072,-7.3083,-7.3125,-7.3142,-7.2941,-7.2941,-7.2941,-7.294,0,-7.2501,-7.2564,-7.2618,-7.2674,-7.2711,-7.2781,-7.2788,-7.2825,-7.2817,-7.2826,-7.2908,-7.2934,-7.2987,-7.301,-7.3002,-7.3106,-7.3089,-7.306,-7.3007,-7.3105,-7.3145,-7.3161,-7.2948,-7.2946,-7.2945,-7.2944,0,0,-7.2655,-7.2709,-7.2729,-7.2754,-7.2798,-7.2845,-7.2912,-7.2966,-7.2997,-7.3035,-7.309,-7.3166,-7.3139,-7.3168,-7.3162,-7.3208,-7.3306,-7.3173,-7.3173,-7.3195,-7.342,-7.3441,-7.346,-7.3292,-7.3295,-7.3297,-7.3417,0,-7.2776,-7.2897,-7.2897,-7.3007,-7.3064,-7.3039,-7.3097,-7.3129,-7.314,-7.3187,-7.3197,-7.3251,-7.3212,-7.3229,-7.3273,-7.3285,-7.3351,-7.3276,-7.334,-7.3343,-7.3331,-7.3481,-7.3504,-7.3616,-7.3432,-7.3435,-7.3437,0,-7.2934,-7.2979,-7.3096,-7.3131,-7.3154,-7.3207,-7.3256,-7.3302,-7.3337,-7.3341,-7.3373,-7.336,-7.3426,-7.3372,-7.3461,-7.3411,-7.3437,-7.3446,-7.3451,-7.3456,-7.3395,-7.3489,-7.3651,-7.3668,-7.3461,-7.3459,-7.3457,0,-7.3033,-7.3123,-7.3204,-7.3226,-7.3269,-7.3307,-7.3326,-7.3357,-7.3389,-7.3431,-7.3451,-7.3499,-7.3525,-7.3561,-7.356,-7.3521,-7.365,-7.3597,-7.3654,-7.3654,-7.3681,-7.3679,-7.3849,-7.37,-7.37,-7.3699,-7.3699,0,-7.3168,-7.324,-7.325,-7.33,-7.3379,-7.3376,-7.3454,-7.3469,-7.3497,-7.3548,-7.3528,-7.3576,-7.3573,-7.362,-7.3619,-7.3693,-7.3705,-7.3708,-7.3707,-7.3709,-7.3709,-7.3726,-7.3717,-7.3704,-7.3703,-7.3702,-7.3701,0,-7.3292,-7.3302,-7.3389,-7.3423,-7.3433,-7.3489,-7.3517,-7.3563,-7.3571,-7.3635,-7.365,-7.3662,-7.3717,-7.372,-7.3782,-7.3782,-7.387,-7.3861,-7.3859,-7.3857,-7.3914,-7.3908,-7.4099,-7.4123,-7.396,-7.3961,-7.3963,0,-7.3377,-7.3433,-7.3473,-7.3506,-7.3528,-7.3582,-7.3615,-7.3614,-7.3648,-7.3691,-7.3731,-7.3784,-7.3826,-7.3914,-7.3927,-7.3974,-7.3965,-7.4029,-7.3971,-7.3972,-7.3964,-7.396,-7.3965,-7.4039,-7.4041,-7.4043,-7.4044,0,-7.3527,-7.3529,-7.3578,-7.3629,-7.3669,-7.3708,-7.3745,-7.3772,-7.3775,-7.3815,-7.3871,-7.3904,-7.3968,-7.4019,-7.4065,-7.4082,-7.4063,-7.4062,-7.4077,-7.408,-7.4076,-7.4077,-7.3889,-7.4057,-7.4056,-7.4055,-7.4054,-7.4054,-7.3634,-7.3681,-7.3716,-7.3771,-7.3799,-7.3833,-7.3878,-7.3893,-7.394,-7.3994,-7.3989,-7.4051,-7.4082,-7.4142,-7.4162,-7.4209,-7.4187,-7.4209,-7.4215,-7.422,-7.4226,-7.407,-7.4217,-7.4217,-7.4216,-7.4216,-7.4216,0,-7.3781,-7.3803,-7.3853,-7.3906,-7.3948,-7.3929,-7.3968,-7.4004,-7.4059,-7.4091,-7.4133,-7.4197,-7.4247,-7.4264,-7.4312,-7.4345,-7.4338,-7.4358,-7.4355,-7.4358,-7.4243,-7.4225,-7.4363,-7.4363,-7.4363,-7.4363,-7.4363,-7.4363,-7.3863,-7.3942,-7.3948,-7.4039,-7.4059,-7.4121,-7.4145,-7.4175,-7.42,-7.4273,-7.4315,-7.4327,-7.4352,-7.4401,-7.4445,-7.4448,-7.4466,-7.449,-7.4489,-7.4382,-7.4367,-7.4352,-7.4335,-7.4494,-7.4494,-7.46,-7.4601,-7.4602]}]]